Theta_e
294 295 295 296 298 301 303 304 305 303 301 299 298 297 296 294 295 295 295 295 296 296 296 296 295 296 295 294 295 294 293 293 289 291 293 294 293 293 294 295 294 295 295
293 294 294 294 295 297 298 299 299 298 298 298 296 294 294 293 293 293 293 294 294 294 295 295 294 294 293 294 293 292 292 292 290 288 291 292 291 293 293 293 292 293 294
292 292 293 292 292 293 295 296 296 295 295 294 293 292 291 292 292 293 293 293 294 294 293 293 293 293 292 292 292 292 292 291 291 290 289 291 291 292 292 292 291 292 292
291 291 291 291 291 291 293 294 294 294 293 293 292 292 291 291 291 291 292 292 293 293 293 293 293 292 292 292 291 292 291 290 289 288 287 287 288 291 290 288 286 289 288
290 291 290 291 292 291 291 291 292 292 292 292 291 291 291 291 291 290 291 291 292 292 292 293 293 291 290 292 291 290 289 288 288 287 286 286 286 286 285 286 284 285 285
288 289 289 289 290 290 290 289 290 289 289 289 289 289 289 290 291 291 291 290 291 291 290 291 291 287 289 290 290 291 291 288 287 286 286 284 285 285 285 284 283 281 280
288 288 288 288 288 289 289 288 286 286 288 288 287 288 287 288 291 291 290 291 290 290 290 290 289 290 288 289 289 289 288 288 289 288 286 286 285 284 283 282 282 280 280
286 286 286 286 286 286 287 286 286 286 285 285 285 285 286 288 290 291 289 290 290 290 289 290 289 288 289 289 288 287 287 288 288 288 288 287 286 285 284 282 281 281 283
283 284 284 284 284 285 285 285 285 285 285 285 285 285 285 286 290 290 289 288 288 287 288 289 289 288 288 289 288 286 286 286 289 288 288 287 285 282 281 281 278 279 279
283 282 283 284 284 284 285 285 285 285 285 285 285 285 286 287 290 290 289 287 286 286 286 287 286 288 287 288 287 286 284 285 285 285 284 284 282 280 279 278 278 277 277
281 281 281 282 283 285 285 285 285 285 285 285 285 285 285 287 289 290 290 287 286 285 285 285 285 288 288 288 288 286 286 285 286 284 283 282 281 280 277 276 276 276 275
279 279 279 280 282 284 285 285 285 285 285 285 285 285 285 286 288 290 290 289 288 285 285 285 286 288 288 288 287 288 287 286 285 283 282 281 280 278 276 275 272 273 273
276 276 277 279 281 283 284 285 285 285 285 285 284 284 284 285 286 290 290 289 288 285 285 286 287 288 287 286 287 287 285 284 283 281 282 281 280 279 275 273 272 272 271
273 274 276 278 280 282 284 285 285 285 284 285 285 285 284 284 285 286 287 287 286 286 286 286 286 286 286 285 284 285 284 284 283 282 282 280 278 276 277 277 275 274 273
271 273 276 278 279 280 282 284 285 286 286 285 285 286 284 283 285 287 287 286 286 286 285 284 284 283 283 283 284 284 283 281 280 281 280 278 277 276 276 277 277 276 274
269 272 274 274 276 278 279 281 286 288 288 287 288 287 287 288 288 288 288 288 288 287 284 283 283 282 282 282 282 282 283 282 281 281 280 279 276 275 275 275 276 275 275
266 268 271 272 274 276 277 278 279 285 288 288 287 288 288 288 288 288 288 289 289 287 284 283 283 283 282 282 283 283 282 282 280 280 279 276 275 276 274 274 273 272 270
265 267 270 272 273 274 276 277 279 280 282 285 286 286 288 288 288 288 288 288 286 286 285 284 283 283 283 282 282 283 282 279 279 278 277 274 273 273 275 274 272 270 270
265 268 270 270 271 272 274 276 278 280 282 285 285 286 285 288 288 289 289 285 285 284 284 284 285 284 283 282 282 283 282 280 279 278 277 273 273 274 273 272 268 265 266
266 268 268 269 270 271 274 275 277 279 282 283 285 285 285 285 284 284 285 285 285 285 285 285 284 283 283 282 282 283 282 279 278 277 276 274 273 272 271 270 269 266 266
265 266 267 268 270 271 273 274 276 278 280 283 285 285 286 284 285 285 285 285 285 285 285 285 284 283 282 282 282 281 280 279 278 278 277 274 271 272 271 271 268 268 266
264 265 266 267 269 270 271 272 275 276 279 282 284 285 287 284 285 285 285 285 286 286 286 285 284 283 282 281 279 278 279 279 278 277 276 273 270 269 270 269 267 266 264
263 264 266 267 268 268 270 271 272 273 274 280 283 284 284 284 285 285 285 285 285 283 284 285 284 283 282 281 279 279 278 279 279 278 274 272 271 269 268 267 266 265 263
263 263 264 265 266 266 267 268 269 269 271 271 276 282 284 284 285 285 285 284 281 280 283 284 282 280 278 278 278 278 278 279 279 276 274 272 271 269 268 266 265 263 263
261 262 262 263 264 264 265 265 266 266 267 268 269 271 274 278 280 280 280 280 278 279 280 280 280 278 278 277 276 276 275 272 272 273 274 272 270 268 267 266 264 263 260
260 260 261 261 261 262 262 262 263 263 263 264 265 266 267 268 270 273 275 277 277 276 276 278 278 278 278 277 275 274 274 273 271 272 273 272 269 268 267 265 264 262 261
Wind_Speed
20 16 17 16 14 13 8 6 7 8 11 13 14 12 12 12 11 7 8 10 10 10 8 8 7 8 6 5 4 3 3 2 2 2 1 2 3 4 6 7 8 8 7
17 17 15 15 14 11 10 7 4 5 8 12 12 13 13 12 11 7 11 8 10 9 9 8 8 6 8 7 5 5 3 3 2 2 1 2 3 5 5 7 7 7 8
16 18 15 13 14 13 10 7 4 4 7 9 12 14 15 14 12 10 9 9 10 10 9 9 9 8 7 6 6 5 4 3 2 1 1 2 2 4 5 6 8 8 7
15 15 17 13 12 13 11 7 5 4 6 8 11 12 13 12 13 10 11 8 9 8 9 9 9 8 8 8 6 5 4 3 2 1 1 1 1 2 4 5 6 6 8
16 15 16 16 12 11 11 8 4 3 4 7 8 9 10 11 9 13 12 9 10 10 7 7 9 7 9 8 6 6 6 4 3 1 0 1 1 1 3 3 5 9 8
15 15 14 14 15 12 9 8 5 2 2 5 8 9 8 6 16 15 14 11 10 10 9 7 6 7 8 10 10 8 6 5 4 2 1 1 2 1 1 3 4 6 5
14 14 15 14 14 14 10 7 5 2 3 2 4 8 8 7 14 16 14 9 10 9 10 8 7 6 8 7 8 9 7 6 5 1 2 1 1 2 2 4 4 5 4
12 13 15 15 14 12 12 5 5 1 3 5 4 5 5 6 17 13 11 8 8 8 8 9 8 8 8 8 9 7 6 6 5 3 2 1 2 3 1 3 5 5 3
12 13 14 14 14 13 10 9 4 3 2 3 5 7 6 7 16 15 11 6 6 6 6 7 8 8 10 10 7 7 5 5 7 5 6 7 7 7 4 2 1 3 2
12 14 14 13 13 14 11 8 5 3 3 3 4 5 9 9 15 18 14 5 6 5 4 5 7 8 15 13 7 6 6 5 6 4 5 7 7 6 8 5 3 2 2
13 14 14 13 13 11 11 6 5 5 3 4 4 4 5 8 13 20 20 6 6 6 6 5 5 12 14 13 9 5 4 6 6 3 4 4 4 3 3 3 3 3 2
13 14 14 14 11 10 12 9 6 5 6 6 6 5 4 6 9 17 19 12 11 6 6 5 5 14 13 10 6 7 7 7 4 3 5 4 5 4 3 3 3 4 4
13 14 13 14 12 11 11 10 6 5 6 6 6 6 6 5 4 14 18 15 13 6 5 7 12 13 12 6 6 7 8 4 4 4 5 3 3 5 5 3 2 4 3
13 13 12 12 12 11 9 7 6 5 5 5 6 5 5 6 6 4 7 8 10 6 9 8 10 9 7 5 4 5 3 3 4 5 4 4 5 4 4 4 3 3 2
12 12 12 10 11 11 9 9 7 7 7 6 6 7 7 7 7 13 11 8 8 8 8 6 6 6 5 5 4 5 4 2 4 4 5 5 4 5 4 4 3 3 1
13 10 10 10 10 10 9 10 13 16 15 16 13 10 8 13 21 21 20 18 17 19 6 7 6 7 6 7 6 5 4 5 5 4 5 5 5 5 5 5 4 3 2
11 13 9 10 9 10 10 9 10 9 15 16 16 16 16 15 23 23 23 22 21 20 8 8 7 8 8 6 5 6 5 4 4 5 4 4 4 4 5 5 3 2 2
10 14 10 9 9 9 10 10 9 9 9 5 12 13 18 20 22 24 24 22 12 15 9 8 8 8 7 7 6 7 5 5 5 5 4 4 3 5 5 5 3 3 4
11 9 9 9 9 10 10 10 9 10 9 8 3 8 12 21 21 21 22 11 12 12 9 8 8 7 8 7 6 6 7 7 6 5 5 4 3 4 3 1 3 2 6
9 13 11 9 9 9 8 9 9 9 9 7 6 6 5 8 9 9 10 11 11 10 10 9 9 8 8 7 8 8 6 6 6 5 5 4 4 2 3 4 3 5 4
8 9 12 9 8 9 9 9 10 9 9 7 8 6 11 9 10 10 11 11 11 10 10 9 8 8 8 7 7 6 6 5 6 5 6 4 3 3 4 3 2 6 7
8 8 9 9 9 9 9 9 9 10 9 9 7 5 17 9 8 9 11 11 10 9 8 9 9 9 8 8 8 7 7 6 6 7 6 6 5 2 2 2 2 3 6
8 8 8 8 8 10 8 8 8 8 9 9 7 5 6 7 6 8 9 9 9 9 7 8 9 9 8 7 6 6 7 7 6 7 7 7 6 4 2 2 2 4 5
7 8 8 7 7 8 8 9 8 11 10 10 10 6 4 6 6 7 7 7 8 9 7 6 7 11 10 8 7 5 4 6 5 6 9 8 7 6 5 4 2 2 6
7 7 7 7 7 7 8 8 9 9 10 10 9 9 8 7 5 7 7 9 8 8 8 7 7 11 12 12 9 8 8 8 5 7 6 8 9 8 6 4 3 2 4
7 7 6 6 7 7 7 8 9 9 10 10 9 9 10 9 9 8 6 6 9 8 9 7 8 11 11 9 8 9 10 11 8 8 6 7 8 6 5 6 6 3 5
Wind_Direction
348 339 335 331 330 324 296 271 218 189 178 176 178 176 168 163 158 152 151 154 158 163 159 166 155 153 147 149 135 151 140 124 122 81 76 351 336 342 332 335 325 324 318
343 335 334 331 331 333 319 306 282 207 185 178 171 167 161 154 148 165 142 176 159 151 161 160 167 160 153 152 148 156 150 158 152 201 340 352 344 339 319 327 325 323 316
339 342 330 335 333 327 324 313 292 227 186 177 172 163 159 154 147 158 147 185 150 157 165 164 169 169 162 151 161 159 153 160 181 208 16 22 320 310 329 325 331 325 313
334 341 339 330 328 321 313 301 269 228 193 186 182 169 159 159 155 161 142 182 141 160 169 166 169 173 173 161 168 161 136 115 113 162 152 280 285 319 329 312 324 324 320
335 336 338 335 321 315 310 304 295 242 201 180 171 158 161 158 169 148 150 158 156 163 162 174 164 171 173 174 154 146 166 167 174 198 166 216 247 327 341 356 313 322 315
335 335 332 339 332 318 309 303 303 226 144 159 158 144 150 160 156 150 149 150 164 157 158 182 148 136 137 140 129 148 166 178 178 187 175 242 263 328 343 333 314 334 335
329 331 334 339 332 325 313 304 276 250 150 123 126 136 134 129 154 160 147 157 162 165 163 167 159 171 163 160 157 163 177 195 227 223 236 256 259 103 326 328 328 320 304
322 326 330 332 328 325 313 295 283 266 175 131 129 129 136 138 153 168 146 160 160 167 164 172 170 162 179 163 161 177 183 187 192 191 231 47 96 110 3 300 290 290 242
315 323 324 323 321 321 320 296 265 228 204 189 160 146 142 139 159 163 165 163 154 158 163 172 166 166 163 166 164 173 172 176 166 159 110 123 105 82 36 303 5 318 22
318 318 317 315 313 317 313 292 269 234 212 176 170 167 155 153 169 177 175 160 152 155 146 158 171 166 163 173 176 163 197 178 145 136 126 130 116 80 57 48 344 27 26
316 311 311 311 309 307 299 296 257 244 210 200 186 168 166 178 179 181 185 166 174 172 168 167 178 164 167 179 185 164 182 136 140 142 155 141 136 117 84 74 32 15 24
314 315 311 310 310 307 307 306 270 229 214 196 194 176 175 181 173 186 189 184 180 172 178 172 159 174 174 178 183 169 168 140 134 157 196 173 149 126 110 84 61 70 56
319 311 310 309 307 307 307 302 287 245 226 200 189 192 174 169 159 193 189 187 179 164 152 165 167 170 167 150 178 170 139 152 159 174 204 145 104 109 113 114 103 111 105
312 310 309 306 309 309 309 298 282 263 237 229 194 192 173 169 164 164 181 174 186 181 165 157 160 158 148 143 161 159 153 180 161 184 150 116 112 142 174 177 174 144 192
312 308 307 306 313 307 301 299 284 257 233 229 209 187 172 182 189 178 179 174 180 173 144 144 155 150 168 170 175 168 155 153 180 146 141 147 148 168 176 187 180 153 195
315 313 313 308 309 303 305 304 293 260 253 240 233 199 197 197 177 181 184 185 177 167 161 175 172 172 182 183 176 163 173 183 186 150 160 147 173 161 163 192 172 219 142
307 306 306 304 299 305 304 307 305 306 260 248 234 227 203 184 173 179 188 186 185 171 192 182 182 191 190 175 173 167 180 161 141 163 167 147 149 140 154 178 186 163 124
299 296 294 302 306 302 301 300 296 296 292 256 229 224 218 199 181 183 190 177 177 190 197 184 186 185 172 178 166 183 148 142 160 165 151 138 151 147 174 169 166 164 100
304 300 305 303 299 298 295 292 289 278 271 273 221 218 211 202 196 192 184 178 182 191 189 186 181 173 166 164 172 178 166 156 153 156 154 146 145 151 157 159 98 83 104
301 301 303 299 305 300 301 303 295 290 279 272 243 224 188 184 191 191 185 185 184 188 185 184 170 164 157 164 171 176 157 141 141 152 155 156 145 150 140 146 181 132 102
303 304 308 299 308 307 306 302 302 296 289 276 267 208 195 199 201 192 182 194 182 180 180 177 162 155 156 158 163 164 149 146 148 154 156 146 133 154 145 172 169 123 122
301 303 307 306 308 311 313 301 304 307 298 285 273 215 211 205 201 185 182 188 175 167 171 165 158 155 156 149 159 165 163 157 153 164 157 135 122 110 140 158 152 134 112
304 310 311 315 318 320 318 326 324 325 322 307 279 236 208 210 196 187 176 176 156 139 148 155 156 145 137 132 146 158 166 170 156 167 146 142 133 136 147 151 171 156 117
320 322 325 326 333 332 337 338 339 342 346 342 343 327 229 199 181 171 155 149 134 127 137 140 149 136 132 130 138 148 132 153 144 148 143 138 141 142 143 127 176 165 115
335 335 337 338 341 346 345 352 352 357 359 355 355 355 2 16 84 114 126 125 122 129 122 127 137 135 140 139 144 145 141 143 136 137 137 133 137 141 134 129 146 158 108
342 342 347 347 349 354 360 1 358 1 6 359 2 7 11 24 29 40 57 100 117 109 104 105 109 113 124 121 127 128 144 148 140 140 133 130 133 134 134 128 142 155 135